KBUY

Details ICAO KBUY (BUY)
Name BURLINGTON ALAMANCE RGNL
Region United States
Timezone America/New_York (UTC-4.0)
Plans Departing 13
Arriving 8
Stats Elevation 617 ft / 188 m (AMSL)
Location 36.048543° -79.474889°
Runways 1
Magnetic Variation 8.803° W
Sunrise 2018-05-27 10:05:53 UTC / 2018-05-27 06:05:53 Local
Sunset 2018-05-28 00:27:10 UTC / 2018-05-27 20:27:10 Local
Advertisement - Login to hide

Runways

ID Width Length Bearing (true) Bearing (mag) Surface Threshold Offset Overrun Length
06 100 ft / 30 m 4,998 ft / 1,523 m 51.97° 60.77° Asphalt 0 ft / 0 m 0 ft / 0 m
24 100 ft / 30 m 4,998 ft / 1,523 m 231.98° 240.78° Asphalt 0 ft / 0 m 0 ft / 0 m

Approach Navaids

Runway Type Ident Frequency Range Bearing (true) Bearing (mag) Slope Elevation
06 Localiser IHBJ 111.35 MHz 18 nm / 33 km 51.98° 60.79° - 617 ft / 188 m (AMSL)
06 Glidescope IHBJ 111.35 MHz 10 nm / 19 km 51.98° 60.78° 3.00° 617 ft / 188 m (AMSL)

Map

Weather


0- 5 10 15 20 25 30 35+ Temperature / ° C

Clouds and Precipitation
Forecast for 2018-05-27 18:00 UTC. Updated 3 hours ago

Ground ~20,000 ft ~40,000 ft Winds

METAR

KBUY 271854Z AUTO 17006KT 10SM SCT032 BKN049 28/21 A2997 RMK AO2 SLP143 T02830211

TAF

Not found

Frequencies

Recorded 135.32 MHz ASOS
Clearance 120.25 MHz CLNC DEL
Unicom 122.97 MHz CTAF/UNICOM
Approach 118.50 MHz GREENSBORO APP/DEP
Warning: Do not use this data for real-world aviation or navigation. No guarantee of current accuracy is given.